Regional Weather Roundup
Issued by NWS

Home | Current Version | Previous Version | Graphics & Text | Print | Product List | Glossary On
Versions: 1 2 3 4 5 6 7 8 9 10 11 12 13 14 15 16 17 18 19 20 21 22 23 24 25 26 27
000
ASUS45 KCYS 271610
RWRWY

WYOMING REGIONAL WEATHER ROUNDUP
NATIONAL WEATHER SERVICE CHEYENNE WY
1000 AM MDT TUE JUN 27 2017

NOTE:  "FAIR" INDICATES FEW OR NO CLOUDS BELOW 12,000 FEET
WITH NO SIGNIFICANT WEATHER AND/OR OBSTRUCTIONS TO VISIBILITY.

WYZ001-271700-
YELLOWSTONE NATIONAL PARK

CITY           SKY/WX    TMP DP  RH WIND       PRES   REMARKS
LK YELLOWSTONE   N/A     55  40  56 CALM      30.12F
W YELLOWSTONE  NOT AVBL

$$
WYZ002>013-054>058-071-098>099-271700-
NORTHERN WYOMING

CITY           SKY/WX    TMP DP  RH WIND       PRES   REMARKS
JACKSON        SUNNY     64  50  59 CALM      30.02F
CODY           FAIR      71  44  37 SW12G20   29.87F
GREYBULL       FAIR      73  38  27 N5        29.77F
WORLAND        FAIR      77  47  34 SW8       29.82F
SHERIDAN       FAIR      72  50  45 E5        29.77S
BUFFALO        FAIR      75  39  27 W24G30    29.84R
GILLETTE       FAIR      78  47  33 NW9       29.77F
NEWCASTLE      FAIR      70  52  52 S3        29.82S

$$
WYZ014>020-022>026-101>103-271700-
CENTRAL WYOMING

CITY           SKY/WX    TMP DP  RH WIND       PRES   REMARKS
BIG PINEY      PTSUNNY   61  39  44 W14       30.08F
PINEDALE       CLOUDY    59  41  51 W3        30.10S HAZE
DUBOIS         FAIR      63  39  42 W16G25    30.02F
LANDER         FAIR      73  46  38 S7        29.95F
RIVERTON       FAIR      70  41  34 NW20G31   29.92F
CASPER         FAIR      80  39  23 SW13      29.88F
DOUGLAS        FAIR      75  53  46 W6        29.86F

$$
WYZ021-027>030-104>119-271700-
SOUTHERN WYOMING

CITY           SKY/WX    TMP DP  RH WIND       PRES   REMARKS
EVANSTON       FAIR      65  42  43 E3        30.13F
KEMMERER         N/A     59  43  55 W6        30.11F
FORT BRIDGER   FAIR      69  41  35 NW9G24    30.15F
ROCK SPRINGS   FAIR      71  38  29 NW18G30   30.08R
DIXON          FAIR      78  30  17 S18G26    30.06S
RAWLINS        FAIR      78  30  17 SW15      30.02F
SARATOGA       FAIR      81  30  16 SW20      30.04F
LARAMIE        FAIR      76  31  19 SW15      30.04F
CHEYENNE       FAIR      81  43  26 SW14      29.96F
TORRINGTON     FAIR      76  56  49 SE17      29.78F
PINE BLUFFS    FAIR      72  52  49 S13       29.92F

$$




USA.gov is the U.S. government's official web portal to all federal, state and local government web resources and services.